EW5847 Weather Reports


Display with metric or nautical units.
time (UTC)temp
F
wind
direction
speed
MPH
gust
MPH
rain 1hr
in
rain 24hr
in
rain mn
in
humidity
%
barometer
mb
20260507070107 50 300 0.0 0.0 0.00 0.31 0.04 91 1004.9
20260507065601 50 300 0.0 0.0 0.00 0.31 0.04 91 1004.9
20260507065055 51 300 0.0 0.0 0.00 0.31 0.04 91 1005.0
20260507064549 51 300 0.0 0.0 0.00 0.31 0.04 91 1004.8
20260507064039 51 300 0.0 0.0 0.00 0.31 0.04 91 1004.8
20260507063537 51 300 0.0 0.0 0.00 0.31 0.04 91 1004.8
20260507063031 51 300 0.0 0.0 0.00 0.31 0.04 91 1004.7
20260507062525 51 300 0.0 0.0 0.00 0.31 0.04 91 1004.7
20260507062020 51 300 0.0 4.0 0.00 0.31 0.04 91 1004.6
20260507061509 51 300 0.0 4.0 0.00 0.31 0.04 92 1004.6
20260507061007 52 300 0.0 4.0 0.00 0.31 0.04 92 1004.6
20260507060457 52 300 0.0 4.0 0.00 0.31 0.04 92 1004.3
20260507055955 52 191 0.0 0.0 0.00 0.31 0.04 92 1004.3
20260507055449 52 191 0.0 0.0 0.00 0.31 0.04 92 1004.5
20260507054940 52 192 0.0 3.0 0.00 0.31 0.04 92 1004.5
20260507054437 52 192 0.0 3.0 0.00 0.31 0.04 92 1004.5
20260507054158 52 327 0.0 3.0 0.00 0.31 0.04 92 1004.5
20260507053425 53 310 0.0 1.0 0.00 0.31 0.04 93 1004.4
20260507052915 53 310 0.0 4.0 0.00 0.31 0.04 93 1004.2
20260507052413 53 310 0.0 4.0 0.00 0.31 0.04 92 1004.2
20260507051907 53 328 0.0 4.0 0.00 0.31 0.04 92 1004.5
20260507051401 53 330 1.0 5.0 0.00 0.31 0.04 92 1004.2
20260507050856 53 315 1.0 5.0 0.01 0.31 0.04 92 1004.2
20260507050617 53 318 0.0 5.0 0.03 0.31 0.04 92 1004.2
20260507045845 53 317 1.0 5.0 0.04 0.31 0.04 92 1004.2
20260507045336 53 296 1.0 5.0 0.05 0.31 0.04 92 1004.2
20260507045057 53 327 1.0 5.0 0.05 0.31 0.04 92 1003.9
20260507044319 53 340 1.0 5.0 0.05 0.31 0.04 92 1004.0
20260507043813 53 322 1.0 7.0 0.05 0.31 0.04 92 1003.8
20260507043314 53 317 2.0 7.0 0.05 0.31 0.04 91 1003.7
20260507042810 53 315 3.0 9.0 0.05 0.31 0.04 91 1003.7
20260507042310 53 5 3.0 9.0 0.05 0.31 0.04 91 1003.5
20260507041809 54 342 3.0 9.0 0.05 0.31 0.04 91 1003.5
20260507041309 54 339 3.0 9.0 0.05 0.31 0.04 91 1003.5
20260507040810 54 328 2.0 8.0 0.04 0.30 0.03 92 1003.7
20260507040309 55 32 2.0 7.0 0.02 0.28 0.01 93 1003.8
20260507035811 55 340 2.0 7.0 0.01 0.27 0.27 93 1003.8
20260507035309 55 300 2.0 7.0 0.00 0.26 0.26 93 1003.6
20260507034759 55 350 2.0 8.0 0.00 0.26 0.26 94 1003.5
20260507034257 55 281 2.0 7.0 0.00 0.26 0.26 94 1003.6
20260507033752 55 279 1.0 7.0 0.00 0.26 0.26 94 1003.5
20260507033241 55 286 0.0 7.0 0.00 0.26 0.26 94 1003.4
20260507032739 55 265 0.0 1.0 0.00 0.26 0.26 94 1003.4
20260507032233 55 257 0.0 0.0 0.00 0.26 0.26 94 1003.3
20260507031728 54 257 0.0 0.0 0.00 0.26 0.26 94 1003.2
20260507031217 54 257 0.0 0.0 0.00 0.26 0.26 94 1003.1
20260507030711 55 257 0.0 0.0 0.00 0.26 0.26 94 1003.2
20260507030209 54 257 0.0 0.0 0.00 0.26 0.26 94 1003.2
20260507025703 54 257 0.0 0.0 0.00 0.26 0.26 94 1003.3
20260507025156 54 257 0.0 0.0 0.00 0.26 0.26 94 1003.2
20260507024918 54 257 0.0 0.0 0.00 0.26 0.26 94 1003.3
20260507024413 54 257 0.0 0.0 0.00 0.26 0.26 94 1003.3
20260507023910 54 257 0.0 3.0 0.00 0.26 0.26 94 1003.3
20260507023133 54 257 0.0 3.0 0.00 0.26 0.26 94 1003.2
20260507022628 54 257 0.0 4.0 0.00 0.26 0.26 94 1003.3
20260507022117 54 257 0.0 4.0 0.00 0.26 0.26 94 1003.4
20260507021611 54 254 0.0 1.0 0.00 0.26 0.26 93 1003.5
20260507021109 54 252 0.0 3.0 0.00 0.26 0.26 93 1003.5
20260507020603 54 252 0.0 4.0 0.01 0.26 0.26 93 1003.6
20260507020056 54 250 1.0 4.0 0.01 0.26 0.26 93 1003.5
20260507015551 54 257 1.0 4.0 0.01 0.26 0.26 93 1003.6
20260507015042 54 257 0.0 4.0 0.01 0.26 0.26 93 1003.7
20260507014534 54 252 0.0 5.0 0.01 0.26 0.26 93 1003.7
20260507014033 54 252 1.0 5.0 0.01 0.26 0.26 93 1003.7
20260507013527 54 271 0.0 4.0 0.01 0.26 0.26 93 1003.8
20260507013021 54 274 0.0 5.0 0.01 0.26 0.26 93 1003.9
20260507012511 54 275 1.0 5.0 0.01 0.26 0.26 93 1003.8
20260507012236 54 269 1.0 5.0 0.01 0.26 0.26 93 1003.9
20260507011735 54 269 1.0 5.0 0.01 0.26 0.26 93 1003.8
20260507011236 54 279 1.0 4.0 0.01 0.26 0.26 93 1003.8
20260507010733 54 283 1.0 4.0 0.00 0.25 0.25 93 1003.9
20260507010003 54 279 1.0 6.0 0.00 0.25 0.25 93 1003.9
20260507005459 54 259 1.0 8.0 0.00 0.25 0.25 93 1004.0
20260507005000 54 211 1.0 8.0 0.00 0.25 0.25 93 1003.9
20260507004500 54 242 1.0 5.0 0.00 0.25 0.25 93 1004.0
20260507004003 55 192 1.0 4.0 0.00 0.25 0.25 93 1003.9
20260507003958 54 229 1.0 5.0 0.00 0.25 0.25 93 1003.9
20260507002957 55 215 1.0 6.0 0.00 0.25 0.25 93 1003.9
20260507002455 55 238 1.0 6.0 0.00 0.25 0.25 92 1004.0
20260507001957 55 208 1.0 9.0 0.00 0.25 0.25 92 1004.0
20260507001455 55 0 1.0 9.0 0.00 0.25 0.25 92 1004.0
20260507000953 55 273 1.0 5.0 0.00 0.25 0.25 92 1004.0
20260507000723 55 282 1.0 5.0 0.00 0.25 0.25 92 1004.0
20260506235950 55 240 1.0 11.0 0.00 0.25 0.25 92 1003.9
20260506235450 55 267 3.0 11.0 0.00 0.25 0.25 92 1003.9
20260506234951 55 293 3.0 11.0 0.00 0.25 0.25 92 1004.0
20260506234450 55 223 3.0 8.0 0.00 0.25 0.25 92 1003.9
20260506233943 55 159 3.0 9.0 0.00 0.25 0.25 92 1003.9
20260506233435 55 294 3.0 9.0 0.00 0.25 0.25 92 1003.9
20260506232923 55 290 2.0 9.0 0.00 0.25 0.25 92 1003.9
20260506232411 55 183 3.0 11.0 0.00 0.25 0.25 92 1003.9
20260506231900 55 290 3.0 11.0 0.00 0.25 0.25 92 1004.0
20260506231349 55 306 3.0 9.0 0.00 0.25 0.25 92 1004.1
20260506230836 55 257 4.0 17.0 0.00 0.25 0.25 92 1004.0
20260506230826 55 190 4.0 17.0 0.00 0.25 0.25 92 1004.1
20260506225814 55 317 3.0 11.0 0.00 0.25 0.25 91 1004.2
20260506225313 55 260 4.0 12.0 0.00 0.25 0.25 91 1004.1
20260506224815 55 248 3.0 12.0 0.00 0.25 0.25 92 1004.1
20260506224313 56 262 3.0 10.0 0.00 0.25 0.25 92 1004.2
20260506223813 55 226 3.0 10.0 0.00 0.25 0.25 92 1004.3
20260506223315 56 306 3.0 10.0 0.01 0.25 0.25 92 1004.4
20260506222815 56 202 4.0 12.0 0.01 0.25 0.25 92 1004.4
20260506222313 56 186 5.0 14.0 0.01 0.25 0.25 91 1004.4
20260506221815 56 278 4.0 14.0 0.01 0.25 0.25 91 1004.4
20260506221310 56 200 4.0 12.0 0.02 0.25 0.25 91 1004.5
20260506220810 56 202 4.0 10.0 0.02 0.25 0.25 91 1004.6
20260506220311 56 270 4.0 11.0 0.03 0.25 0.25 91 1004.6
20260506215811 56 266 4.0 12.0 0.03 0.25 0.25 91 1004.6
20260506215309 56 260 3.0 12.0 0.04 0.25 0.25 91 1004.6
20260506214810 56 221 2.0 10.0 0.05 0.25 0.25 91 1004.7
20260506214309 56 216 2.0 10.0 0.06 0.25 0.25 91 1004.7
20260506213809 56 302 2.0 14.0 0.07 0.25 0.25 91 1004.7
20260506213312 56 44 3.0 14.0 0.07 0.24 0.24 91 1004.8
20260506213036 56 74 4.0 14.0 0.07 0.24 0.24 91 1004.8
20260506212252 56 165 3.0 14.0 0.08 0.24 0.24 91 1004.9
20260506211740 56 185 2.0 8.0 0.08 0.24 0.24 91 1005.0
20260506211236 56 55 2.0 8.0 0.07 0.23 0.23 91 1005.0
20260506210729 56 177 2.0 9.0 0.07 0.23 0.23 91 1005.1
20260506210230 56 200 2.0 9.0 0.07 0.22 0.22 90 1005.2
20260506210003 56 335 2.0 8.0 0.07 0.22 0.22 90 1005.2
20260506205227 57 248 2.0 9.0 0.06 0.21 0.21 90 1005.2
20260506204729 57 209 1.0 9.0 0.05 0.20 0.20 90 1005.2
20260506204227 57 296 1.0 9.0 0.05 0.19 0.19 90 1005.2
20260506203727 57 275 0.0 9.0 0.04 0.18 0.18 90 1005.1
20260506203225 57 218 0.0 5.0 0.04 0.17 0.17 90 1005.1
20260506202958 57 239 0.0 2.0 0.11 0.17 0.17 90 1005.1
20260506202845 57 239 0.0 2.0 0.11 0.16 0.16 90 1005.0
20260506201724 57 187 0.0 2.0 0.11 0.16 0.16 90 1005.0
20260506201223 57 186 0.0 5.0 0.12 0.16 0.16 89 1004.9
20260506200722 57 144 0.0 5.0 0.13 0.16 0.16 89 1005.1
20260506200452 57 244 0.0 2.0 0.12 0.15 0.15 89 1005.2
20260506195719 57 245 0.0 2.0 0.13 0.15 0.15 89 1005.4
20260506195219 57 244 0.0 4.0 0.14 0.15 0.15 88 1005.2
20260506194717 57 243 0.0 4.0 0.14 0.15 0.15 88 1005.2
20260506194450 58 261 1.0 7.0 0.14 0.14 0.14 87 1005.5
20260506193716 58 212 1.0 7.0 0.14 0.14 0.14 86 1005.7
20260506193209 58 244 1.0 5.0 0.10 0.10 0.12 86 1006.0
20260506192655 58 227 1.0 5.0 0.06 0.06 0.06 85 1005.9
20260506192155 58 269 1.0 5.0 0.05 0.05 0.05 84 1005.7
20260506191650 58 263 1.0 5.0 0.04 0.04 0.04 84 1005.8
20260506191142 59 212 1.0 5.0 0.04 0.04 0.04 83 1005.7
20260506190632 59 273 2.0 6.0 0.03 0.03 0.03 82 1005.8
20260506190401 59 254 2.0 7.0 0.03 0.03 0.03 82 1005.9
20260506185625 59 252 3.0 12.0 0.02 0.02 0.02 80 1005.9
20260506185113 60 226 4.0 13.0 0.01 0.01 0.01 79 1006.0
20260506184613 60 250 4.0 13.0 0.01 0.01 0.01 77 1006.0
20260506184102 60 224 3.0 12.0 0.00 0.00 0.00 76 1005.9
20260506183600 61 273 4.0 12.0 0.00 0.00 0.00 75 1005.8
20260506183054 61 283 4.0 11.0 0.00 0.00 0.00 74 1005.7
20260506182545 61 257 4.0 11.0 0.00 0.00 0.00 73 1005.8
20260506182043 62 219 4.0 11.0 0.00 0.00 0.00 71 1005.6
20260506181804 62 184 3.0 11.0 0.00 0.00 0.00 70 1005.6
20260506181030 62 193 3.0 11.0 0.00 0.00 0.00 69 1005.6
20260506180525 63 210 3.0 11.0 0.00 0.00 0.00 68 1005.5
20260506180014 63 340 4.0 12.0 0.00 0.00 0.00 68 1005.6
20260506175513 63 188 2.0 12.0 0.00 0.00 0.00 67 1005.6
20260506175002 64 211 2.0 9.0 0.00 0.00 0.00 67 1005.6
20260506174500 64 298 3.0 9.0 0.00 0.00 0.00 68 1005.6
20260506173954 64 44 2.0 9.0 0.00 0.00 0.00 67 1005.6
20260506173450 65 234 2.0 9.0 0.00 0.00 0.00 67 1005.7
20260506172942 65 217 2.0 9.0 0.00 0.00 0.00 67 1005.7
20260506172432 65 128 3.0 14.0 0.00 0.00 0.00 69 1005.8
20260506171930 65 290 3.0 14.0 0.00 0.00 0.00 68 1005.9
20260506171425 65 324 2.0 10.0 0.00 0.00 0.00 69 1005.9
20260506170918 64 194 3.0 10.0 0.00 0.00 0.00 69 1006.0
20260506170645 65 207 2.0 10.0 0.00 0.00 0.00 68 1006.2
20260506165903 65 212 1.0 10.0 0.00 0.00 0.00 69 1006.1
20260506165401 65 296 2.0 10.0 0.00 0.00 0.00 69 1006.3
20260506164849 65 355 2.0 9.0 0.00 0.00 0.00 69 1006.4
20260506164348 65 109 0.0 7.0 0.00 0.00 0.00 71 1006.4
20260506164113 65 211 1.0 8.0 0.00 0.00 0.00 70 1006.5
20260506163332 65 156 0.0 8.0 0.00 0.00 0.00 69 1006.6
20260506162830 65 258 0.0 5.0 0.00 0.00 0.00 70 1006.7
20260506162320 65 267 0.0 5.0 0.00 0.00 0.00 70 1006.9
20260506162048 65 272 1.0 8.0 0.00 0.00 0.00 70 1007.0
20260506161312 65 86 2.0 8.0 0.00 0.00 0.00 69 1007.1
20260506160802 65 306 2.0 8.0 0.00 0.00 0.00 69 1007.2
20260506160300 65 263 2.0 8.0 0.00 0.00 0.00 70 1007.4
20260506155750 65 280 1.0 7.0 0.00 0.00 0.00 71 1007.5
20260506155248 64 266 0.0 4.0 0.00 0.00 0.00 71 1007.6
20260506155014 64 266 0.0 5.0 0.00 0.00 0.00 73 1007.6
20260506154504 64 74 0.0 5.0 0.00 0.00 0.00 72 1007.7
20260506153730 64 279 0.0 4.0 0.00 0.00 0.00 71 1007.7
20260506153225 64 239 1.0 5.0 0.00 0.00 0.00 71 1007.5
20260506152718 63 140 1.0 5.0 0.00 0.00 0.00 72 1007.6
20260506152439 63 254 1.0 6.0 0.00 0.00 0.00 71 1007.6
20260506151932 63 275 1.0 7.0 0.00 0.00 0.00 71 1007.8
20260506151433 63 348 0.0 2.0 0.00 0.00 0.00 71 1007.6
20260506151305 63 246 0.0 7.0 0.00 0.00 0.00 71 1007.8
20260506150148 63 355 0.0 4.0 0.00 0.00 0.00 71 1007.6
20260506145638 63 271 0.0 4.0 0.00 0.00 0.00 71 1007.6
20260506145131 63 271 0.0 5.0 0.00 0.00 0.00 72 1007.6
20260506144901 63 271 1.0 6.0 0.00 0.00 0.00 72 1007.5
20260506144125 63 248 1.0 6.0 0.00 0.00 0.00 71 1007.4
20260506143618 63 278 1.0 6.0 0.00 0.00 0.00 72 1007.4
20260506143112 63 62 0.0 6.0 0.00 0.00 0.00 72 1007.3
20260506142602 63 252 0.0 3.0 0.00 0.00 0.00 72 1007.3
20260506142055 63 234 0.0 4.0 0.00 0.00 0.00 71 1007.4
20260506141554 62 267 0.0 4.0 0.00 0.00 0.00 72 1007.5
20260506141046 62 150 0.0 4.0 0.00 0.00 0.00 73 1007.6
20260506140537 62 146 1.0 4.0 0.00 0.00 0.00 73 1007.7
20260506140034 62 223 0.0 4.0 0.00 0.00 0.00 73 1007.8
20260506135527 62 263 0.0 3.0 0.00 0.00 0.00 74 1008.0
20260506135021 62 263 1.0 5.0 0.00 0.00 0.00 73 1008.0
20260506134517 62 269 1.0 5.0 0.00 0.00 0.00 73 1008.0
20260506134008 62 255 1.0 6.0 0.00 0.00 0.00 74 1008.0
20260506133458 62 255 1.0 6.0 0.00 0.00 0.00 74 1008.0
20260506133449 62 275 1.0 5.0 0.00 0.00 0.00 74 1008.0
20260506132448 61 238 1.0 5.0 0.00 0.00 0.00 74 1008.0
20260506132220 61 227 0.0 3.0 0.00 0.00 0.00 75 1007.8
20260506131448 61 250 0.0 3.0 0.00 0.00 0.00 75 1007.8
20260506130946 61 153 0.0 7.0 0.00 0.00 0.00 76 1007.7
20260506130449 61 259 1.0 7.0 0.00 0.00 0.00 76 1007.7
20260506125949 60 261 2.0 7.0 0.00 0.00 0.00 75 1007.7
20260506125447 60 253 1.0 7.0 0.00 0.00 0.00 76 1007.7
20260506124948 60 273 0.0 4.0 0.00 0.00 0.00 76 1007.7
20260506124444 59 234 0.0 4.0 0.00 0.00 0.00 77 1007.8
20260506124216 59 230 0.0 4.0 0.00 0.00 0.00 78 1007.8
20260506123444 59 230 0.0 4.0 0.00 0.00 0.00 79 1008.0
20260506122943 58 308 0.0 3.0 0.00 0.00 0.00 79 1008.0
20260506122444 58 283 0.0 2.0 0.00 0.00 0.00 80 1007.8
20260506122213 57 284 0.0 2.0 0.00 0.00 0.00 80 1008.0
20260506121444 57 284 0.0 2.0 0.00 0.00 0.00 80 1008.2
20260506120942 57 287 0.0 1.0 0.00 0.00 0.00 80 1008.3
20260506120444 56 288 0.0 0.0 0.00 0.00 0.00 81 1008.2
20260506120439 56 288 0.0 3.0 0.00 0.00 0.00 82 1008.4
20260506115425 56 288 0.0 3.0 0.00 0.00 0.00 82 1008.3
20260506114914 56 286 0.0 0.0 0.00 0.00 0.00 83 1008.3
20260506114634 55 286 0.0 0.0 0.00 0.00 0.00 83 1008.5
20260506113850 55 286 0.0 0.0 0.00 0.00 0.00 83 1008.5
20260506113340 55 286 0.0 0.0 0.00 0.00 0.00 84 1008.5
20260506112830 55 286 0.0 0.0 0.00 0.00 0.00 83 1008.6
20260506112319 54 286 0.0 0.0 0.00 0.00 0.00 83 1008.8
20260506111817 54 286 0.0 0.0 0.00 0.00 0.00 84 1008.4
20260506111312 54 286 0.0 1.0 0.00 0.00 0.00 83 1008.5
20260506110801 54 286 0.0 1.0 0.00 0.00 0.00 83 1008.7
20260506110257 53 283 0.0 3.0 0.00 0.00 0.00 83 1008.7
20260506105751 53 283 0.0 3.0 0.00 0.00 0.00 83 1008.5
20260506105242 53 283 0.0 3.0 0.00 0.00 0.00 83 1008.6
20260506104741 53 283 0.0 4.0 0.00 0.00 0.00 83 1008.6
20260506104235 53 283 1.0 4.0 0.00 0.00 0.00 83 1008.7
20260506103723 53 265 0.0 3.0 0.00 0.00 0.00 84 1008.6
20260506103455 52 261 0.0 3.0 0.00 0.00 0.00 83 1008.5
20260506102716 52 260 0.0 3.0 0.00 0.00 0.00 83 1008.3
20260506102706 52 283 0.0 1.0 0.00 0.00 0.00 83 1008.3
20260506101658 52 283 0.0 2.0 0.00 0.00 0.00 83 1008.4
20260506101158 52 283 0.0 2.0 0.00 0.00 0.00 82 1008.5
20260506100652 52 283 0.0 2.0 0.00 0.00 0.00 82 1008.4
20260506100145 52 283 0.0 2.0 0.00 0.00 0.00 81 1008.2
20260506095639 52 283 0.0 0.0 0.00 0.00 0.00 81 1008.2
20260506095129 52 283 0.0 0.0 0.00 0.00 0.00 81 1008.3
20260506094624 52 284 0.0 0.0 0.00 0.00 0.00 80 1008.4
20260506094118 53 284 0.0 0.0 0.00 0.00 0.00 79 1008.4
20260506093615 53 284 0.0 0.0 0.00 0.00 0.00 80 1008.3
20260506093105 53 284 0.0 0.0 0.00 0.00 0.00 79 1008.2
20260506092603 53 284 0.0 0.0 0.00 0.00 0.00 79 1008.2
20260506092053 53 284 0.0 0.0 0.00 0.00 0.00 78 1008.2
20260506091821 54 284 0.0 0.0 0.00 0.00 0.00 78 1008.2
20260506091044 54 284 0.0 0.0 0.00 0.00 0.00 77 1008.2
20260506090533 54 284 0.0 0.0 0.00 0.00 0.00 77 1008.2
20260506090027 54 284 0.0 0.0 0.00 0.00 0.00 77 1008.3
20260506085525 55 284 0.0 0.0 0.00 0.00 0.00 76 1008.3
20260506085247 55 284 0.0 0.0 0.00 0.00 0.00 76 1008.1
20260506085121 55 284 0.0 0.0 0.00 0.00 0.00 76 1008.3
20260506084004 55 284 0.0 0.0 0.00 0.00 0.00 75 1008.1
20260506083457 55 284 0.0 0.0 0.00 0.00 0.00 75 1008.0
20260506082955 55 284 0.0 3.0 0.00 0.00 0.00 75 1008.1
20260506082720 55 284 0.0 3.0 0.00 0.00 0.00 75 1007.8
20260506082214 56 284 0.0 3.0 0.00 0.00 0.00 76 1008.0
20260506081434 56 284 0.0 3.0 0.00 0.00 0.00 76 1008.0
20260506080932 56 285 0.0 4.0 0.00 0.00 0.00 75 1008.0
20260506080425 56 285 0.0 4.0 0.00 0.00 0.00 75 1008.0
20260506073345 56 286 1.0 4.0 0.00 0.00 0.00 73 1008.0
20260506072333 56 212 1.0 3.0 0.00 0.00 0.00 73 1007.8
20260506071831 56 244 0.0 3.0 0.00 0.00 0.00 73 1007.7
20260506071325 56 22 0.0 3.0 0.00 0.00 0.00 73 1007.6
20260506070819 56 264 0.0 3.0 0.00 0.00 0.00 72 1007.5
20260506070313 57 265 0.0 3.0 0.00 0.00 0.00 73 1007.5